Meteo pe oră la Abercorn

Astăzi, 29 Iulie, Joi

Timp Temperatura Precipitaţii Vânt Presiune Umiditate
00:00 +14°C° 0 mm 2 m/s 744 mmHg 68%
01:00 +13°C° 0 mm 2 m/s 744 mmHg 67%
02:00 +13°C° 0 mm 2 m/s 744 mmHg 68%
03:00 +12°C° 0 mm 1 m/s 743 mmHg 70%
04:00 +12°C° 0 mm 1 m/s 743 mmHg 71%
05:00 +14°C° 0 mm 1 m/s 743 mmHg 68%
06:00 +15°C° 0 mm 2 m/s 743 mmHg 64%
07:00 +17°C° 0 mm 2 m/s 743 mmHg 61%
08:00 +19°C° 0 mm 2 m/s 743 mmHg 57%
09:00 +21°C° 0 mm 3 m/s 742 mmHg 53%
10:00 +24°C° 0 mm 3 m/s 742 mmHg 49%
11:00 +24°C° 0 mm 3 m/s 741 mmHg 49%
12:00 +25°C° 0 mm 3 m/s 741 mmHg 49%
13:00 +25°C° 0 mm 4 m/s 740 mmHg 49%
14:00 +24°C° 0.1 mm 3 m/s 740 mmHg 56%
15:00 +22°C° 0.1 mm 3 m/s 739 mmHg 63%
16:00 +23°C° 0.1 mm 2 m/s 738 mmHg 70%
17:00 +20°C° 0.5 mm 2 m/s 738 mmHg 79%
18:00 +19°C° 0.5 mm 1 m/s 738 mmHg 88%
19:00 +16°C° 0.5 mm 1 m/s 738 mmHg 97%
20:00 +16°C° 0.1 mm 1 m/s 738 mmHg 97%
21:00 +16°C° 0.1 mm 1 m/s 738 mmHg 97%
22:00 +16°C° 0.1 mm 1 m/s 737 mmHg 97%
23:00 +16°C° 0.2 mm 1 m/s 737 mmHg 97%

Mâine, 30 Iulie, Vineri

Timp Temperatura Precipitaţii Vânt Presiune Umiditate
00:00 +16°C° 0.2 mm 1 m/s 737 mmHg 98%
01:00 +16°C° 0.2 mm 1 m/s 736 mmHg 98%
02:00 +16°C° 0.4 mm 1 m/s 736 mmHg 98%
03:00 +16°C° 0.4 mm 1 m/s 735 mmHg 99%
04:00 +16°C° 0.4 mm 1 m/s 735 mmHg 99%
05:00 +16°C° 3.1 mm 1 m/s 735 mmHg 99%
06:00 +16°C° 3.1 mm 1 m/s 735 mmHg 99%
07:00 +15°C° 3.1 mm 1 m/s 736 mmHg 99%
08:00 +15°C° 0.5 mm 2 m/s 736 mmHg 98%
09:00 +14°C° 0.5 mm 3 m/s 736 mmHg 98%
10:00 +13°C° 0.5 mm 4 m/s 736 mmHg 98%
11:00 +12°C° 0.5 mm 3 m/s 737 mmHg 97%
12:00 +12°C° 0.5 mm 3 m/s 737 mmHg 97%
13:00 +11°C° 0.5 mm 3 m/s 738 mmHg 97%
14:00 +13°C° 0.1 mm 2 m/s 738 mmHg 95%
15:00 +13°C° 0.1 mm 1 m/s 739 mmHg 93%
16:00 +14°C° 0.1 mm 1 m/s 739 mmHg 91%
17:00 +13°C° 0.1 mm 1 m/s 739 mmHg 90%
18:00 +13°C° 0.1 mm 1 m/s 739 mmHg 89%
19:00 +13°C° 0.1 mm 1 m/s 739 mmHg 88%
20:00 +13°C° 0 mm 1 m/s 739 mmHg 87%
21:00 +12°C° 0 mm 1 m/s 739 mmHg 87%
22:00 +10°C° 0 mm 2 m/s 739 mmHg 86%
23:00 +9°C° 0 mm 2 m/s 739 mmHg 86%

Poimâine, 31 Iulie, Sâmbătă

Timp Temperatura Precipitaţii Vânt Presiune Umiditate
00:00 +8°C° 0 mm 2 m/s 739 mmHg 86%
01:00 +7°C° 0 mm 2 m/s 739 mmHg 86%
02:00 +7°C° 0 mm 2 m/s 740 mmHg 86%
03:00 +7°C° 0 mm 2 m/s 740 mmHg 87%
04:00 +7°C° 0 mm 2 m/s 740 mmHg 88%
05:00 +8°C° 0 mm 2 m/s 740 mmHg 83%
06:00 +9°C° 0 mm 3 m/s 740 mmHg 78%
07:00 +11°C° 0 mm 3 m/s 741 mmHg 73%
08:00 +13°C° 0 mm 4 m/s 741 mmHg 66%
09:00 +14°C° 0 mm 4 m/s 741 mmHg 59%
10:00 +16°C° 0 mm 5 m/s 741 mmHg 52%
11:00 +17°C° 0 mm 5 m/s 741 mmHg 51%
12:00 +19°C° 0 mm 5 m/s 740 mmHg 51%
13:00 +19°C° 0 mm 5 m/s 740 mmHg 50%
14:00 +19°C° 0 mm 4 m/s 740 mmHg 52%
15:00 +19°C° 0 mm 3 m/s 740 mmHg 54%
16:00 +19°C° 0 mm 3 m/s 740 mmHg 56%
17:00 +19°C° 0 mm 2 m/s 740 mmHg 60%
18:00 +18°C° 0 mm 2 m/s 740 mmHg 64%
19:00 +17°C° 0 mm 2 m/s 740 mmHg 67%
20:00 +16°C° 0 mm 2 m/s 740 mmHg 71%
21:00 +15°C° 0 mm 2 m/s 740 mmHg 75%
22:00 +13°C° 0 mm 2 m/s 740 mmHg 79%
23:00 +13°C° 0.1 mm 2 m/s 740 mmHg 84%

1 August, Duminică

Timp Temperatura Precipitaţii Vânt Presiune Umiditate
00:00 +13°C° 0.1 mm 2 m/s 740 mmHg 90%
01:00 +13°C° 0.1 mm 2 m/s 740 mmHg 96%
02:00 +12°C° 0.1 mm 2 m/s 740 mmHg 96%
03:00 +12°C° 0.1 mm 2 m/s 741 mmHg 96%
04:00 +12°C° 0.1 mm 2 m/s 741 mmHg 97%
05:00 +13°C° 0 mm 1 m/s 741 mmHg 96%
06:00 +14°C° 0 mm 1 m/s 742 mmHg 95%
07:00 +14°C° 0 mm 1 m/s 742 mmHg 94%
08:00 +16°C° 0 mm 1 m/s 742 mmHg 89%
09:00 +18°C° 0 mm 1 m/s 742 mmHg 84%
10:00 +19°C° 0 mm 1 m/s 742 mmHg 80%
11:00 +20°C° 0.1 mm 1 m/s 742 mmHg 72%
12:00 +22°C° 0.1 mm 1 m/s 742 mmHg 65%
13:00 +23°C° 0.1 mm 1 m/s 741 mmHg 57%
14:00 +23°C° 0.1 mm 1 m/s 741 mmHg 59%
15:00 +23°C° 0.1 mm 1 m/s 741 mmHg 61%
16:00 +22°C° 0.1 mm 1 m/s 741 mmHg 62%
17:00 +21°C° 0.5 mm 1 m/s 741 mmHg 71%
18:00 +19°C° 0.5 mm 1 m/s 741 mmHg 79%
19:00 +16°C° 0.5 mm 1 m/s 741 mmHg 88%
20:00 +16°C° 0.5 mm 1 m/s 740 mmHg 89%
21:00 +16°C° 0.5 mm 1 m/s 740 mmHg 91%
22:00 +15°C° 0.5 mm 1 m/s 740 mmHg 93%
23:00 +15°C° 1.2 mm 2 m/s 740 mmHg 95%

2 August, Luni

Timp Temperatura Precipitaţii Vânt Presiune Umiditate
00:00 +15°C° 1.2 mm 2 m/s 739 mmHg 96%
01:00 +14°C° 1.2 mm 2 m/s 739 mmHg 98%
02:00 +13°C° 3.9 mm 3 m/s 739 mmHg 98%
03:00 +13°C° 3.9 mm 3 m/s 739 mmHg 98%
04:00 +12°C° 3.9 mm 3 m/s 739 mmHg 98%
05:00 +12°C° 2 mm 3 m/s 739 mmHg 98%
06:00 +12°C° 2 mm 3 m/s 740 mmHg 98%
07:00 +12°C° 2 mm 3 m/s 741 mmHg 98%
08:00 +13°C° 0.2 mm 2 m/s 741 mmHg 97%
09:00 +13°C° 0.2 mm 2 m/s 742 mmHg 97%
10:00 +14°C° 0.2 mm 2 m/s 743 mmHg 97%
11:00 +15°C° 0.2 mm 2 m/s 743 mmHg 87%
12:00 +17°C° 0.2 mm 2 m/s 743 mmHg 78%
13:00 +19°C° 0.2 mm 2 m/s 743 mmHg 68%
14:00 +19°C° 0.1 mm 2 m/s 743 mmHg 64%
15:00 +20°C° 0.1 mm 2 m/s 743 mmHg 60%
16:00 +21°C° 0.1 mm 1 m/s 744 mmHg 56%
17:00 +20°C° 0 mm 1 m/s 744 mmHg 63%
18:00 +19°C° 0 mm 1 m/s 744 mmHg 70%
19:00 +15°C° 0 mm 0 m/s 744 mmHg 77%
20:00 +15°C° 0 mm 1 m/s 745 mmHg 80%
21:00 +14°C° 0 mm 1 m/s 745 mmHg 83%
22:00 +13°C° 0 mm 1 m/s 746 mmHg 86%
23:00 +13°C° 0 mm 1 m/s 746 mmHg 87%

3 August, Marţi

Timp Temperatura Precipitaţii Vânt Presiune Umiditate
00:00 +12°C° 0 mm 1 m/s 746 mmHg 88%
01:00 +12°C° 0 mm 1 m/s 746 mmHg 89%
02:00 +12°C° 0 mm 1 m/s 746 mmHg 89%
03:00 +12°C° 0 mm 1 m/s 746 mmHg 90%
04:00 +11°C° 0 mm 1 m/s 746 mmHg 90%
05:00 +13°C° 0 mm 1 m/s 746 mmHg 85%
06:00 +14°C° 0 mm 1 m/s 747 mmHg 80%
07:00 +16°C° 0 mm 1 m/s 747 mmHg 75%
08:00 +19°C° 0 mm 1 m/s 747 mmHg 68%
09:00 +21°C° 0 mm 1 m/s 747 mmHg 61%
10:00 +23°C° 0 mm 1 m/s 747 mmHg 54%
11:00 +23°C° 0 mm 1 m/s 747 mmHg 53%
12:00 +23°C° 0 mm 1 m/s 747 mmHg 53%
13:00 +24°C° 0 mm 1 m/s 746 mmHg 53%
14:00 +24°C° 0 mm 1 m/s 746 mmHg 52%
15:00 +22°C° 0 mm 0 m/s 746 mmHg 52%
16:00 +22°C° 0 mm 0 m/s 746 mmHg 51%
17:00 +20°C° 0 mm 0 m/s 746 mmHg 60%
18:00 +18°C° 0 mm 0 m/s 746 mmHg 69%
19:00 +16°C° 0 mm 0 m/s 746 mmHg 78%
20:00 +15°C° 0 mm 0 m/s 746 mmHg 81%
21:00 +15°C° 0 mm 1 m/s 746 mmHg 83%
22:00 +14°C° 0 mm 1 m/s 747 mmHg 86%
23:00 +14°C° 0 mm 1 m/s 747 mmHg 87%
Arată mai mult

Formular de consimțământ

Meteoprog și furnizorii noștri de servicii pot stoca și accesa date personale, precum cookies, identificatori de dispozitiv sau alte tehnologii similare pe dispozitivul dumneavoastră și procesa astfel de date pentru a personaliza conținutul și reclamele, dar și pentru a oferi caracteristici de social media și pentru a analiza traficul.

  • Stocarea și/sau accesarea informațiilor pe dispozitivul dumneavoastră

    Cookies, identificatori de dispozitiv sau alte informații pot fi stocate sau accesate pe dispozitiv în scopurile indicate mai sus.

  • Reclame și conținut personalizat, evaluarea reclamelor și a conținutului, informații despre audiențe și dezvoltarea produselor

    Reclamele și conținutul pot fi personalizate pe baza unui profil. Pot fi adăugate date suplimentare pentru a personaliza mai bine reclamele și conținutul. Performanța reclamelor și conținutului poate fi măsurată. Pot fi obținute informații despre utilizatorii care au văzut reclamele și conținutul. Aceste date pot fi utilizate pentru a dezvolta sau îmbunătăți experiența utilizatorilor, sistemele și software-ul.

Dând clic pe ‘Sunt de acord’, permiteți utilizarea cookie-urilor menționate, a identificatorilor de dispozitiv, balizelor web sau altor tehnologii similare. Setările pot fi modificate din browser-ul dispozitivului dumneavoastră.

În anumite scopuri, interesele legitime pot prima asupra consimțământului. Puteți citi mai multe informații în acest sens în Politica privind Confidențialitatea Datelor și Cookie.